Wind_Speed
21 20 20 20 20 19 18 18 17 15 15 14 13 13 12 12 11 10 9 8 8 9 8 7 6 6 6 6 6 5 5 5 5 6 6 7 7 7 9 9 9 9 10 9 9 9 9 10 10
21 20 20 20 21 21 20 19 17 15 15 15 14 13 12 12 12 10 10 9 9 10 9 8 7 6 7 7 6 6 5 5 5 6 7 7 7 8 9 9 9 9 10 10 10 9 10 11 11
20 20 20 20 22 22 21 21 19 17 17 16 15 14 13 13 12 12 11 10 10 10 10 10 9 8 8 7 6 6 5 5 5 5 5 6 7 8 8 9 9 9 10 9 10 10 10 11 11
18 19 20 21 21 21 21 21 20 18 17 16 15 14 14 13 13 13 12 11 11 10 10 9 9 8 8 7 7 6 5 5 4 4 5 6 7 8 9 9 9 9 9 9 9 9 9 10 10
18 19 20 21 20 20 21 21 21 19 18 17 16 15 14 14 14 13 13 12 11 11 10 9 8 8 8 8 7 6 6 4 5 5 5 7 7 8 8 8 8 9 9 9 9 9 9 9 9
16 18 18 18 18 19 19 20 20 19 18 17 17 16 15 15 15 14 14 13 12 11 10 9 9 8 8 8 8 7 6 5 5 5 6 7 7 7 7 7 8 9 9 9 9 8 8 8 8
15 17 17 16 16 17 18 18 18 18 18 17 17 17 16 16 15 14 14 13 12 11 10 10 9 9 9 8 8 7 7 6 5 6 6 6 7 6 7 7 8 8 9 9 8 8 7 8 8
14 16 16 16 15 16 17 17 17 18 18 17 17 17 16 16 15 14 13 13 12 11 11 11 10 10 9 9 8 7 7 6 6 5 5 6 6 6 6 7 8 8 8 8 8 7 7 7 7
14 14 14 14 15 15 16 16 17 18 18 18 17 16 16 16 16 15 13 13 12 12 11 11 11 10 9 8 8 7 6 6 5 5 5 6 7 7 7 7 7 7 8 8 7 7 7 6 6
11 12 12 12 13 14 15 15 16 17 18 17 17 16 16 16 16 15 14 13 13 12 12 12 12 11 10 10 9 8 7 6 5 5 4 5 6 7 7 7 7 7 7 7 6 6 6 6 6
9 10 11 11 12 13 14 16 17 17 17 16 16 15 16 16 16 15 14 14 13 13 13 13 12 12 11 11 9 8 7 6 5 5 4 4 5 6 7 7 7 7 6 7 6 6 6 6 5
8 8 9 10 10 11 14 16 17 17 17 16 16 16 15 14 15 15 14 14 14 13 13 13 12 12 12 11 10 9 7 6 5 5 5 4 4 5 6 7 7 6 6 6 5 5 6 6 6
6 4 5 6 7 10 12 14 15 16 16 16 16 15 15 14 14 14 14 13 13 13 13 12 12 12 11 11 10 9 8 7 6 5 5 4 4 5 5 5 5 5 6 6 5 5 5 6 6
5 3 2 3 4 8 10 12 13 14 16 16 15 15 15 14 13 13 13 13 12 12 12 12 13 12 11 10 10 9 9 8 6 5 4 4 3 4 4 5 6 6 6 6 6 6 5 6 6
5 3 1 2 2 5 7 9 10 13 15 15 15 14 14 13 13 12 12 12 12 12 12 12 13 12 11 11 10 10 9 8 7 5 4 3 2 2 3 3 5 5 5 6 6 6 6 6 7
7 4 1 1 3 4 5 6 8 10 12 13 13 12 12 12 12 11 11 11 11 11 11 12 12 12 11 11 10 10 9 8 8 6 4 3 2 2 1 2 3 4 4 5 6 6 6 6 7
9 5 3 3 4 5 5 5 6 8 9 10 11 11 11 11 11 12 11 11 10 10 11 11 11 11 11 10 10 9 9 8 7 6 5 3 2 2 1 2 2 3 3 4 5 6 7 7 7
10 7 5 5 5 7 7 6 5 7 8 8 9 9 10 10 10 10 10 10 10 10 10 10 10 10 10 10 10 9 8 8 7 6 5 4 2 1 1 1 1 2 3 4 4 5 6 7 8
14 11 8 7 7 8 8 7 6 6 7 7 8 8 8 9 10 10 10 9 9 9 9 9 9 10 10 9 9 9 8 8 7 6 6 5 3 2 1 1 1 2 2 3 3 4 6 7 7
16 13 11 9 9 10 9 7 6 6 6 6 7 8 7 8 8 9 9 8 8 8 8 8 8 8 9 9 9 9 8 8 7 7 6 5 4 3 3 2 1 2 2 3 4 4 5 6 7
17 15 14 13 13 12 12 11 9 8 7 6 7 7 7 7 7 7 7 7 7 7 8 7 7 8 8 8 8 9 9 8 7 6 6 5 4 3 3 3 2 2 3 4 5 5 6 6 7
18 16 16 16 15 15 15 14 12 11 10 7 7 7 8 7 6 6 6 6 7 7 7 7 6 7 7 7 7 7 7 8 7 6 6 6 5 4 3 3 3 4 4 5 5 6 6 6 7
18 17 17 18 18 17 16 16 14 14 12 10 9 9 9 10 8 7 6 6 7 7 7 7 6 6 7 7 7 7 6 6 6 6 6 6 6 5 5 5 5 5 5 5 5 6 6 7 6
18 18 19 20 20 19 16 17 16 15 13 12 13 12 12 11 9 8 8 7 8 8 7 7 7 7 7 7 7 7 7 6 6 6 5 5 6 6 6 5 6 6 6 6 6 6 7 7 7
21 20 21 22 23 20 18 20 18 16 16 15 15 14 13 12 11 9 8 8 8 9 9 8 8 8 8 8 8 9 9 8 7 7 6 6 6 6 6 7 7 7 8 8 7 7 7 7 7
22 23 23 23 22 20 21 23 21 19 18 18 17 15 15 14 13 13 10 9 9 9 10 10 10 10 10 10 10 10 10 10 9 8 7 7 7 7 7 7 8 8 9 9 8 7 8 8 8
23 24 23 24 23 24 24 22 22 21 19 19 19 18 18 16 15 15 13 12 11 11 11 12 11 11 11 12 11 11 11 10 10 9 9 9 8 8 8 8 9 9 10 10 10 10 10 11 10
25 24 24 25 25 26 25 23 22 22 20 21 22 20 19 18 17 16 15 14 14 13 14 14 13 13 13 13 13 13 12 11 11 11 11 11 10 9 10 10 10 11 11 12 12 12 12 12 12
26 27 28 28 28 28 28 26 24 24 23 22 22 22 22 20 19 18 16 16 16 16 16 16 15 15 15 15 15 15 14 13 12 13 13 13 12 12 12 13 13 13 13 13 13 13 13 13 13
29 29 30 31 31 31 31 30 27 26 25 24 24 23 22 21 20 19 17 18 18 18 19 19 17 18 17 16 16 16 15 15 15 14 14 14 14 14 15 15 15 15 15 15 15 15 15 15 15
Wind_Direction
69 64 62 60 56 57 57 58 56 53 53 53 53 54 55 56 58 61 62 63 65 67 68 74 88 95 93 92 89 92 114 126 137 145 147 146 149 147 143 142 141 144 145 142 139 134 132 135 134
69 64 60 57 53 53 55 57 56 55 53 54 54 54 57 59 57 59 62 62 65 66 68 74 84 90 93 93 92 98 109 127 136 147 148 145 153 151 146 143 142 145 146 143 138 132 130 132 132
68 63 59 55 53 51 54 56 53 54 54 56 56 54 56 59 59 59 61 64 67 68 74 75 82 87 87 89 92 96 103 116 128 141 141 144 149 148 148 147 146 146 147 145 138 134 133 134 133
64 62 56 51 51 52 52 52 53 52 54 56 58 56 56 59 60 61 62 64 69 72 76 79 82 85 83 83 87 86 100 110 121 135 142 143 146 144 143 146 149 149 149 146 140 136 134 134 134
58 58 51 48 48 50 49 48 49 49 52 55 58 57 56 59 60 60 61 63 68 71 74 77 80 81 81 82 86 93 98 111 116 124 138 141 139 141 142 148 153 152 151 151 147 141 139 137 134
62 55 47 45 46 48 50 48 47 47 51 53 55 57 56 58 60 59 60 62 66 68 71 74 76 74 77 82 84 91 95 103 118 126 134 141 137 134 135 140 148 155 156 155 153 147 143 142 140
55 51 43 45 46 47 50 50 48 48 50 51 53 55 54 55 57 56 57 60 63 66 67 67 69 73 78 80 84 89 87 90 107 120 127 135 137 134 138 143 145 154 157 158 155 150 148 143 142
58 51 47 44 43 45 47 47 47 48 48 50 52 53 53 55 57 56 57 62 66 66 66 67 68 74 77 80 82 84 86 87 98 117 128 136 140 140 144 144 145 150 154 155 157 153 146 141 142
54 45 39 39 39 42 43 43 44 46 48 49 50 52 54 56 58 59 59 62 65 65 67 67 68 70 73 78 79 78 82 84 91 105 121 137 144 142 141 140 146 151 155 160 162 158 151 147 148
56 42 38 39 36 38 43 47 47 43 42 44 48 50 53 56 59 61 62 62 63 63 65 66 67 68 71 72 70 72 77 83 90 102 112 133 145 148 148 149 152 154 159 165 170 170 167 162 161
66 47 38 36 33 37 43 44 45 43 39 42 45 48 52 55 59 61 61 62 63 64 65 64 64 65 67 68 68 69 73 82 91 101 114 127 148 151 154 156 156 158 164 167 167 171 176 175 177
80 54 39 33 32 35 43 44 42 42 40 40 42 46 51 53 57 61 62 62 62 63 64 62 61 62 63 62 62 65 69 82 89 96 110 124 146 155 160 161 163 165 170 171 172 178 184 188 192
106 68 47 35 31 38 40 44 39 38 38 37 40 44 49 53 55 58 61 62 61 61 62 60 60 60 60 59 58 61 68 73 84 97 100 111 134 152 163 176 180 182 189 190 193 197 200 202 204
145 138 90 61 46 36 35 38 38 33 33 35 38 40 43 50 54 56 58 58 59 59 59 60 58 57 58 57 56 59 62 65 75 89 90 92 115 141 164 180 193 200 205 209 209 213 210 215 220
184 170 135 44 49 32 23 26 32 33 31 35 36 37 40 46 51 52 52 51 53 55 56 57 55 55 56 57 58 58 58 61 63 69 73 96 119 135 150 172 192 204 213 222 217 209 213 223 229
208 200 160 330 348 356 12 12 24 26 26 28 33 35 37 40 42 44 46 46 48 49 51 53 52 52 54 54 54 53 53 53 54 58 65 82 115 126 159 197 199 201 206 215 217 219 226 227 231
212 225 231 265 294 318 330 337 358 7 13 18 25 29 33 32 33 35 38 41 43 44 45 48 50 51 51 50 49 49 47 48 50 53 58 73 96 117 137 187 194 190 206 215 219 224 234 233 234
212 221 237 262 281 296 306 312 320 342 356 4 11 20 27 26 27 30 30 33 37 37 40 41 43 47 47 46 45 44 44 47 48 49 48 48 58 90 136 175 194 198 219 224 225 228 235 239 240
214 220 232 242 265 283 301 304 294 319 340 344 348 4 17 18 18 21 21 26 31 32 35 39 42 44 45 43 41 39 39 41 43 42 42 40 39 44 18 269 248 252 250 243 243 247 245 250 249
218 223 236 241 250 274 283 293 298 297 311 319 332 345 3 5 6 11 15 20 29 29 28 31 34 37 40 40 37 35 33 31 31 32 31 27 28 24 16 1 320 295 286 268 253 257 262 261 253
222 226 236 246 247 259 275 278 277 273 288 290 311 327 338 347 354 358 6 9 14 15 16 17 21 25 30 32 33 32 29 25 23 22 22 17 13 14 11 2 330 306 293 281 268 269 269 266 263
226 231 238 248 251 247 260 272 271 268 272 281 294 309 320 317 329 338 343 349 350 355 0 5 8 8 13 16 18 21 21 20 19 19 14 11 8 0 349 343 333 318 299 284 279 281 277 277 277
227 230 242 250 253 247 249 265 272 267 274 278 280 287 294 302 302 305 310 317 322 329 339 347 352 351 353 355 358 2 3 5 6 7 5 3 2 356 341 324 316 310 302 292 290 290 293 289 284
227 231 240 249 251 249 250 260 266 267 275 281 276 278 284 290 293 290 288 295 301 308 313 324 333 335 333 334 335 335 336 338 339 340 343 349 349 343 339 329 325 319 313 307 302 300 301 293 285
227 233 241 244 247 248 251 257 264 265 269 270 271 272 274 277 280 276 281 285 288 296 298 305 313 315 317 318 319 318 320 320 317 316 320 327 331 326 323 321 320 319 312 306 302 301 297 291 285
225 233 242 247 250 247 250 257 264 263 264 265 267 268 267 264 267 268 273 280 280 281 286 293 301 300 301 303 306 308 309 312 308 308 310 312 316 319 316 312 311 312 312 308 300 296 297 296 290
231 235 243 248 250 252 253 258 263 263 264 263 264 268 272 264 261 266 265 271 275 273 275 281 289 291 294 296 299 305 305 303 304 300 298 300 302 307 309 307 308 309 309 308 303 299 296 295 289
236 238 241 244 248 252 253 255 260 261 265 266 265 268 269 261 260 262 260 264 268 270 272 274 279 285 289 292 295 299 301 299 296 293 292 293 292 294 298 299 301 303 303 303 299 296 295 293 286
232 235 240 244 247 250 253 254 256 261 266 267 267 267 268 272 267 262 260 261 261 264 269 267 275 280 284 287 288 289 293 294 294 290 291 292 289 291 293 295 296 297 298 297 296 293 291 289 285
235 237 239 244 246 249 252 255 254 258 263 267 271 269 266 271 270 268 263 260 261 263 266 269 275 277 281 284 285 284 285 288 292 291 290 291 289 290 289 290 292 292 294 294 292 287 284 284 283
Height
5894 5893 5892 5891 5891 5889 5888 5887 5886 5885 5884 5883 5882 5881 5880 5880 5880 5881 5878 5876 5875 5875 5874 5874 5875 5875 5875 5875 5875 5875 5875 5875 5876 5876 5876 5877 5878 5878 5879 5880 5881 5882 5883 5883 5884 5884 5884 5884 5885
5896 5895 5895 5894 5891 5891 5890 5889 5888 5887 5886 5884 5883 5882 5882 5881 5880 5879 5878 5877 5876 5876 5875 5875 5875 5876 5876 5876 5876 5876 5876 5876 5877 5877 5877 5878 5879 5879 5880 5881 5882 5883 5883 5884 5885 5885 5885 5885 5886
5898 5898 5898 5896 5894 5893 5893 5891 5890 5889 5888 5887 5886 5885 5884 5883 5881 5880 5879 5878 5877 5877 5877 5876 5877 5877 5877 5877 5877 5877 5877 5877 5877 5877 5877 5878 5879 5879 5880 5881 5882 5883 5884 5885 5886 5887 5887 5887 5888
5901 5901 5900 5898 5896 5896 5895 5893 5892 5891 5890 5889 5888 5887 5885 5884 5883 5882 5880 5879 5879 5879 5878 5878 5878 5878 5878 5878 5878 5878 5878 5878 5878 5877 5878 5878 5879 5879 5880 5882 5883 5884 5885 5886 5887 5888 5888 5889 5890
5904 5903 5901 5899 5899 5898 5897 5896 5895 5894 5892 5891 5890 5889 5887 5886 5884 5883 5882 5881 5881 5880 5880 5880 5880 5879 5879 5879 5879 5878 5878 5878 5878 5878 5878 5879 5879 5880 5881 5882 5883 5884 5886 5887 5888 5889 5889 5890 5891
5907 5904 5904 5902 5902 5901 5900 5898 5898 5896 5894 5893 5892 5891 5889 5888 5886 5885 5884 5883 5882 5882 5882 5881 5881 5880 5880 5880 5879 5879 5879 5878 5878 5878 5879 5879 5880 5881 5882 5883 5884 5885 5886 5888 5889 5890 5891 5891 5892
5909 5906 5905 5905 5904 5903 5903 5901 5900 5899 5897 5895 5894 5893 5891 5889 5888 5886 5885 5885 5884 5884 5883 5883 5882 5882 5881 5881 5880 5880 5880 5879 5879 5880 5880 5880 5881 5881 5882 5883 5884 5886 5887 5889 5890 5891 5892 5892 5893
5910 5909 5908 5908 5907 5906 5905 5904 5902 5901 5899 5897 5896 5894 5893 5892 5890 5888 5888 5887 5886 5886 5885 5885 5884 5883 5883 5882 5881 5881 5881 5880 5880 5881 5881 5881 5881 5882 5883 5884 5885 5887 5888 5889 5891 5892 5893 5893 5894
5912 5912 5910 5910 5909 5908 5907 5906 5905 5903 5902 5900 5898 5897 5896 5894 5892 5891 5890 5890 5889 5888 5887 5886 5885 5884 5884 5883 5882 5882 5882 5881 5881 5881 5881 5882 5882 5883 5883 5885 5886 5887 5889 5890 5891 5892 5893 5894 5895
5914 5913 5913 5913 5912 5911 5910 5908 5906 5904 5903 5902 5901 5899 5898 5896 5895 5893 5893 5892 5891 5890 5888 5888 5887 5886 5885 5884 5884 5883 5883 5882 5882 5882 5882 5883 5883 5884 5885 5886 5887 5888 5889 5890 5891 5893 5893 5894 5895
5915 5916 5915 5914 5913 5912 5911 5910 5908 5907 5906 5904 5903 5902 5900 5898 5897 5896 5895 5894 5893 5892 5890 5889 5888 5887 5886 5886 5885 5884 5884 5883 5883 5883 5883 5883 5884 5885 5885 5886 5887 5888 5889 5890 5891 5892 5893 5894 5895
5916 5917 5915 5914 5914 5913 5912 5911 5911 5909 5909 5907 5905 5904 5902 5901 5899 5898 5897 5896 5895 5894 5892 5891 5890 5889 5888 5887 5886 5885 5884 5884 5883 5884 5884 5884 5885 5885 5886 5887 5888 5889 5890 5891 5891 5892 5893 5894 5895
5916 5916 5916 5915 5915 5914 5913 5913 5913 5911 5910 5909 5907 5905 5904 5903 5901 5900 5900 5899 5897 5896 5895 5893 5892 5890 5889 5888 5888 5887 5886 5885 5884 5884 5885 5885 5886 5886 5887 5888 5889 5889 5890 5891 5891 5892 5893 5894 5894
5916 5916 5916 5916 5916 5916 5915 5915 5914 5913 5912 5910 5909 5907 5906 5904 5903 5902 5901 5901 5899 5898 5896 5895 5893 5892 5891 5890 5889 5888 5887 5886 5885 5886 5886 5886 5887 5887 5887 5888 5888 5889 5890 5890 5891 5891 5892 5892 5893
5917 5917 5917 5916 5916 5916 5916 5916 5915 5915 5913 5912 5911 5909 5908 5907 5905 5904 5903 5902 5901 5900 5898 5897 5895 5894 5892 5891 5890 5889 5888 5887 5887 5886 5886 5886 5887 5887 5887 5888 5888 5889 5889 5890 5890 5890 5891 5891 5892
5917 5917 5917 5917 5916 5916 5917 5916 5916 5915 5914 5913 5912 5911 5910 5909 5908 5906 5904 5903 5902 5901 5899 5898 5896 5895 5894 5893 5891 5890 5889 5888 5888 5887 5887 5887 5887 5887 5888 5888 5888 5888 5889 5889 5889 5889 5890 5890 5890
5916 5916 5916 5916 5916 5916 5916 5916 5916 5915 5914 5914 5913 5913 5911 5910 5909 5908 5906 5905 5903 5902 5901 5899 5898 5896 5895 5894 5893 5892 5890 5889 5888 5888 5887 5887 5887 5887 5888 5887 5888 5888 5888 5888 5888 5889 5889 5889 5889
5915 5915 5915 5915 5915 5915 5914 5915 5915 5915 5914 5914 5913 5913 5912 5911 5910 5909 5908 5906 5905 5903 5902 5900 5899 5898 5896 5895 5894 5893 5892 5890 5889 5888 5888 5888 5887 5887 5887 5887 5887 5887 5887 5887 5887 5887 5887 5887 5887
5913 5913 5914 5914 5915 5914 5914 5914 5915 5914 5913 5913 5913 5912 5912 5912 5911 5910 5908 5907 5905 5904 5903 5901 5900 5899 5898 5896 5895 5894 5893 5891 5890 5889 5888 5888 5887 5887 5887 5887 5887 5887 5887 5886 5886 5886 5886 5886 5886
5909 5911 5912 5913 5913 5913 5913 5913 5913 5914 5913 5913 5912 5912 5912 5911 5911 5910 5908 5907 5906 5905 5904 5902 5901 5900 5899 5897 5896 5894 5893 5892 5891 5890 5889 5888 5887 5887 5886 5886 5886 5886 5886 5885 5885 5885 5884 5884 5884
5906 5908 5909 5910 5910 5911 5911 5911 5911 5911 5911 5911 5912 5911 5910 5910 5910 5909 5908 5907 5906 5905 5904 5903 5901 5900 5899 5898 5897 5895 5894 5892 5891 5890 5889 5888 5887 5886 5886 5885 5885 5885 5884 5884 5883 5883 5883 5883 5882
5903 5905 5906 5906 5907 5908 5908 5908 5909 5909 5909 5909 5909 5908 5908 5908 5908 5908 5907 5906 5905 5905 5904 5902 5901 5900 5899 5898 5897 5895 5894 5893 5891 5890 5889 5887 5886 5885 5885 5884 5884 5884 5883 5883 5882 5882 5881 5881 5880
5900 5901 5902 5902 5903 5904 5904 5905 5906 5905 5906 5907 5906 5906 5906 5906 5906 5906 5906 5905 5904 5903 5902 5901 5900 5899 5899 5898 5896 5895 5894 5892 5891 5889 5888 5887 5886 5885 5884 5883 5883 5882 5882 5881 5880 5880 5879 5879 5878
5896 5897 5898 5898 5898 5899 5901 5901 5902 5902 5903 5904 5904 5904 5904 5903 5903 5903 5904 5903 5902 5901 5901 5900 5899 5898 5897 5896 5895 5894 5893 5891 5890 5888 5887 5886 5885 5884 5883 5882 5881 5880 5880 5879 5879 5878 5877 5876 5876
5891 5893 5894 5893 5894 5895 5897 5896 5898 5899 5900 5900 5901 5901 5901 5900 5900 5900 5901 5901 5900 5899 5898 5898 5897 5896 5895 5894 5893 5892 5891 5889 5888 5887 5885 5884 5883 5882 5881 5881 5880 5879 5878 5877 5876 5875 5875 5874 5873
5886 5887 5889 5889 5890 5891 5892 5892 5894 5894 5894 5895 5895 5895 5896 5896 5897 5896 5896 5897 5897 5896 5896 5895 5894 5894 5893 5892 5891 5890 5888 5887 5886 5885 5884 5883 5882 5881 5880 5879 5878 5876 5875 5874 5873 5873 5872 5871 5870
5880 5881 5883 5884 5885 5886 5886 5888 5889 5889 5889 5890 5891 5891 5891 5892 5892 5892 5892 5892 5893 5892 5892 5892 5891 5891 5890 5889 5888 5887 5885 5884 5883 5882 5881 5880 5879 5878 5877 5876 5875 5874 5873 5871 5870 5870 5868 5868 5867
5875 5876 5878 5878 5879 5879 5881 5882 5884 5884 5884 5885 5885 5885 5885 5887 5887 5887 5887 5887 5887 5888 5888 5888 5887 5887 5886 5885 5885 5884 5882 5881 5880 5879 5878 5877 5876 5875 5874 5873 5872 5871 5869 5868 5867 5866 5865 5864 5863
5868 5870 5871 5872 5872 5873 5874 5878 5879 5879 5879 5879 5880 5880 5881 5881 5882 5881 5882 5882 5882 5882 5883 5882 5883 5882 5882 5881 5880 5879 5878 5877 5876 5875 5874 5873 5872 5871 5871 5869 5868 5867 5866 5865 5863 5862 5861 5860 5859
5861 5863 5864 5866 5866 5867 5867 5872 5872 5873 5873 5873 5874 5875 5875 5876 5876 5876 5876 5876 5876 5876 5876 5877 5877 5877 5876 5876 5875 5874 5874 5873 5872 5870 5870 5869 5869 5867 5866 5865 5864 5863 5862 5860 5859 5858 5856 5855 5854